• In Deutschland
  • Länderverzeichnis
  • Für 7 Tage
  • Wassertemperatur
  • Satellitenkarten
  • Wetterkarte
  • Widgets
  • user-avatar
    Anmelden

    Stündliche Wetter Ucar

    Heute, 18 Januar, Donnerstag

    Zeit Temperatur Niederschläge Wind Luftdruck Luftfeuchtigkeit
    00:00 +3°C° 0 mm 1 m/S 761 mmHg 66%
    01:00 +3°C° 0 mm 1 m/S 760 mmHg 66%
    02:00 +3°C° 0 mm 1 m/S 760 mmHg 65%
    03:00 +3°C° 0 mm 1 m/S 760 mmHg 65%
    04:00 +2°C° 0 mm 0 m/S 760 mmHg 64%
    05:00 +2°C° 0 mm 0 m/S 759 mmHg 64%
    06:00 +2°C° 0 mm 0 m/S 759 mmHg 63%
    07:00 +3°C° 0 mm 0 m/S 759 mmHg 60%
    08:00 +3°C° 0 mm 0 m/S 759 mmHg 57%
    09:00 +5°C° 0 mm 1 m/S 759 mmHg 54%
    10:00 +6°C° 0 mm 1 m/S 758 mmHg 50%
    11:00 +7°C° 0 mm 1 m/S 757 mmHg 46%
    12:00 +8°C° 0 mm 1 m/S 757 mmHg 42%
    13:00 +8°C° 0 mm 2 m/S 756 mmHg 41%
    14:00 +8°C° 0 mm 2 m/S 756 mmHg 39%
    15:00 +9°C° 0 mm 2 m/S 755 mmHg 38%
    16:00 +8°C° 0 mm 2 m/S 755 mmHg 41%
    17:00 +7°C° 0 mm 2 m/S 755 mmHg 45%
    18:00 +6°C° 0 mm 2 m/S 755 mmHg 48%
    19:00 +5°C° 0 mm 2 m/S 755 mmHg 49%
    20:00 +5°C° 0 mm 2 m/S 755 mmHg 49%
    21:00 +5°C° 0 mm 2 m/S 754 mmHg 50%
    22:00 +5°C° 0 mm 2 m/S 754 mmHg 51%
    23:00 +5°C° 0 mm 2 m/S 754 mmHg 51%

    Morgen, 19 Januar, Freitag

    Zeit Temperatur Niederschläge Wind Luftdruck Luftfeuchtigkeit
    00:00 +4°C° 0 mm 3 m/S 754 mmHg 52%
    01:00 +4°C° 0 mm 3 m/S 753 mmHg 53%
    02:00 +4°C° 0 mm 3 m/S 753 mmHg 53%
    03:00 +4°C° 0 mm 3 m/S 753 mmHg 54%
    04:00 +4°C° 0 mm 3 m/S 753 mmHg 55%
    05:00 +4°C° 0 mm 3 m/S 753 mmHg 56%
    06:00 +4°C° 0 mm 3 m/S 753 mmHg 57%
    07:00 +5°C° 0 mm 3 m/S 754 mmHg 55%
    08:00 +7°C° 0 mm 3 m/S 754 mmHg 54%
    09:00 +7°C° 0 mm 4 m/S 754 mmHg 52%
    10:00 +10°C° 0 mm 4 m/S 754 mmHg 48%
    11:00 +11°C° 0 mm 4 m/S 754 mmHg 44%
    12:00 +13°C° 0 mm 4 m/S 753 mmHg 39%
    13:00 +13°C° 0 mm 4 m/S 753 mmHg 39%
    14:00 +14°C° 0 mm 4 m/S 753 mmHg 38%
    15:00 +14°C° 0 mm 4 m/S 753 mmHg 37%
    16:00 +13°C° 0 mm 3 m/S 754 mmHg 40%
    17:00 +12°C° 0 mm 3 m/S 755 mmHg 44%
    18:00 +10°C° 0 mm 2 m/S 756 mmHg 47%
    19:00 +10°C° 0 mm 2 m/S 756 mmHg 47%
    20:00 +10°C° 0 mm 2 m/S 757 mmHg 47%
    21:00 +9°C° 0 mm 2 m/S 757 mmHg 46%
    22:00 +9°C° 0 mm 2 m/S 758 mmHg 47%
    23:00 +9°C° 0 mm 2 m/S 758 mmHg 47%

    übermorgen, 20 Januar, Samstag

    Zeit Temperatur Niederschläge Wind Luftdruck Luftfeuchtigkeit
    00:00 +8°C° 0 mm 2 m/S 759 mmHg 47%
    01:00 +8°C° 0 mm 2 m/S 759 mmHg 47%
    02:00 +9°C° 0 mm 1 m/S 760 mmHg 46%
    03:00 +9°C° 0 mm 1 m/S 760 mmHg 46%
    04:00 +9°C° 0 mm 1 m/S 761 mmHg 48%
    05:00 +9°C° 0 mm 1 m/S 761 mmHg 50%
    06:00 +9°C° 0 mm 1 m/S 761 mmHg 53%
    07:00 +9°C° 0 mm 1 m/S 762 mmHg 53%
    08:00 +9°C° 0 mm 1 m/S 763 mmHg 54%
    09:00 +10°C° 0 mm 1 m/S 763 mmHg 54%
    10:00 +10°C° 0 mm 2 m/S 763 mmHg 51%
    11:00 +12°C° 0 mm 2 m/S 763 mmHg 48%
    12:00 +13°C° 0 mm 2 m/S 763 mmHg 45%
    13:00 +13°C° 0 mm 2 m/S 763 mmHg 44%
    14:00 +13°C° 0 mm 2 m/S 764 mmHg 43%
    15:00 +14°C° 0 mm 2 m/S 764 mmHg 43%
    16:00 +12°C° 0 mm 2 m/S 764 mmHg 48%
    17:00 +11°C° 0 mm 1 m/S 765 mmHg 53%
    18:00 +10°C° 0 mm 1 m/S 765 mmHg 58%
    19:00 +9°C° 0 mm 1 m/S 766 mmHg 60%
    20:00 +9°C° 0 mm 1 m/S 766 mmHg 62%
    21:00 +7°C° 0 mm 2 m/S 766 mmHg 65%
    22:00 +8°C° 0 mm 1 m/S 766 mmHg 66%
    23:00 +8°C° 0 mm 1 m/S 766 mmHg 68%

    21 Januar, Sonntag

    Zeit Temperatur Niederschläge Wind Luftdruck Luftfeuchtigkeit
    00:00 +7°C° 0 mm 1 m/S 766 mmHg 69%
    01:00 +7°C° 0 mm 1 m/S 766 mmHg 69%
    02:00 +7°C° 0 mm 1 m/S 766 mmHg 69%
    03:00 +7°C° 0 mm 1 m/S 766 mmHg 69%
    04:00 +7°C° 0 mm 1 m/S 765 mmHg 68%
    05:00 +6°C° 0 mm 1 m/S 765 mmHg 68%
    06:00 +6°C° 0 mm 1 m/S 765 mmHg 67%
    07:00 +7°C° 0 mm 1 m/S 765 mmHg 64%
    08:00 +8°C° 0 mm 1 m/S 765 mmHg 60%
    09:00 +9°C° 0 mm 1 m/S 765 mmHg 57%
    10:00 +10°C° 0 mm 1 m/S 764 mmHg 52%
    11:00 +10°C° 0 mm 2 m/S 763 mmHg 47%
    12:00 +13°C° 0 mm 2 m/S 763 mmHg 42%
    13:00 +13°C° 0 mm 2 m/S 762 mmHg 40%
    14:00 +14°C° 0 mm 2 m/S 762 mmHg 38%
    15:00 +14°C° 0 mm 2 m/S 761 mmHg 37%
    16:00 +13°C° 0 mm 2 m/S 762 mmHg 40%
    17:00 +12°C° 0 mm 2 m/S 762 mmHg 43%
    18:00 +10°C° 0 mm 2 m/S 762 mmHg 46%
    19:00 +10°C° 0 mm 1 m/S 762 mmHg 47%
    20:00 +10°C° 0 mm 1 m/S 762 mmHg 49%
    21:00 +9°C° 0 mm 1 m/S 763 mmHg 50%
    22:00 +9°C° 0 mm 1 m/S 762 mmHg 52%
    23:00 +9°C° 0 mm 1 m/S 762 mmHg 53%

    22 Januar, Montag

    Zeit Temperatur Niederschläge Wind Luftdruck Luftfeuchtigkeit
    00:00 +8°C° 0 mm 1 m/S 762 mmHg 54%
    01:00 +8°C° 0 mm 1 m/S 762 mmHg 55%
    02:00 +8°C° 0 mm 1 m/S 761 mmHg 55%
    03:00 +7°C° 0 mm 1 m/S 761 mmHg 55%
    04:00 +7°C° 0 mm 1 m/S 761 mmHg 55%
    05:00 +7°C° 0 mm 1 m/S 761 mmHg 55%
    06:00 +7°C° 0 mm 1 m/S 761 mmHg 55%
    07:00 +8°C° 0 mm 1 m/S 761 mmHg 52%
    08:00 +8°C° 0 mm 1 m/S 761 mmHg 50%
    09:00 +9°C° 0 mm 1 m/S 760 mmHg 47%
    10:00 +10°C° 0 mm 1 m/S 760 mmHg 44%
    11:00 +11°C° 0 mm 1 m/S 759 mmHg 40%
    12:00 +13°C° 0 mm 1 m/S 758 mmHg 37%
    13:00 +13°C° 0 mm 1 m/S 758 mmHg 37%
    14:00 +13°C° 0 mm 1 m/S 758 mmHg 36%
    15:00 +13°C° 0 mm 1 m/S 757 mmHg 35%
    16:00 +12°C° 0 mm 1 m/S 757 mmHg 39%
    17:00 +11°C° 0 mm 1 m/S 757 mmHg 42%
    18:00 +10°C° 0 mm 1 m/S 757 mmHg 46%
    19:00 +10°C° 0 mm 1 m/S 757 mmHg 46%
    20:00 +9°C° 0 mm 1 m/S 757 mmHg 47%
    21:00 +9°C° 0 mm 1 m/S 757 mmHg 47%
    22:00 +9°C° 0 mm 1 m/S 757 mmHg 48%
    23:00 +7°C° 0 mm 2 m/S 756 mmHg 48%

    23 Januar, Dienstag

    Zeit Temperatur Niederschläge Wind Luftdruck Luftfeuchtigkeit
    00:00 +7°C° 0 mm 2 m/S 756 mmHg 48%
    01:00 +7°C° 0 mm 2 m/S 756 mmHg 47%
    02:00 +7°C° 0 mm 2 m/S 756 mmHg 47%
    03:00 +6°C° 0 mm 2 m/S 756 mmHg 47%
    04:00 +6°C° 0 mm 2 m/S 756 mmHg 45%
    05:00 +6°C° 0 mm 2 m/S 756 mmHg 44%
    06:00 +6°C° 0 mm 2 m/S 756 mmHg 42%
    07:00 +7°C° 0 mm 2 m/S 756 mmHg 40%
    08:00 +8°C° 0 mm 2 m/S 757 mmHg 37%
    09:00 +9°C° 0 mm 2 m/S 757 mmHg 35%
    10:00 +12°C° 0 mm 2 m/S 757 mmHg 31%
    11:00 +12°C° 0 mm 3 m/S 756 mmHg 27%
    12:00 +14°C° 0 mm 3 m/S 756 mmHg 23%
    13:00 +14°C° 0 mm 3 m/S 756 mmHg 22%
    14:00 +16°C° 0 mm 3 m/S 756 mmHg 22%
    15:00 +16°C° 0 mm 3 m/S 757 mmHg 21%
    16:00 +14°C° 0 mm 3 m/S 757 mmHg 25%
    17:00 +12°C° 0 mm 3 m/S 758 mmHg 29%
    18:00 +10°C° 0 mm 2 m/S 758 mmHg 33%
    19:00 +10°C° 0 mm 2 m/S 759 mmHg 36%
    20:00 +9°C° 0 mm 2 m/S 759 mmHg 39%
    21:00 +9°C° 0 mm 2 m/S 760 mmHg 43%
    22:00 +8°C° 0 mm 2 m/S 760 mmHg 48%
    23:00 +8°C° 0 mm 2 m/S 760 mmHg 53%
    Mehr zeigen